When you browse on this site, cookies collect data to enhance your experience and personalize the content and advertising you see.
Visit our Privacy Policy to learn more. By continuing to use the site, you agree to this use of cookies and data.
  • In Portugal
  • List of Countries
  • For 7 days
  • Water Temperature
  • Satellite Maps
  • Weather Map
  • Weather Widgets
  • user-avatar
    Login

    Hourly Weather Gold Coast

    Today, 18 January, Friday

    Time Temperature Precipitation Wind Pressure Humidity
    00:00 +23°C° 0 mm 2 mps 757 mmHg 85%
    01:00 +23°C° 0 mm 2 mps 757 mmHg 86%
    02:00 +23°C° 0 mm 2 mps 757 mmHg 86%
    03:00 +23°C° 0 mm 2 mps 757 mmHg 86%
    04:00 +23°C° 0 mm 1 mps 757 mmHg 83%
    05:00 +24°C° 0 mm 2 mps 757 mmHg 79%
    06:00 +25°C° 0 mm 2 mps 758 mmHg 74%
    07:00 +26°C° 0 mm 2 mps 758 mmHg 70%
    08:00 +28°C° 0 mm 2 mps 758 mmHg 63%
    09:00 +29°C° 0 mm 3 mps 758 mmHg 57%
    10:00 +31°C° 0 mm 3 mps 759 mmHg 50%
    11:00 +33°C° 0 mm 3 mps 758 mmHg 48%
    12:00 +33°C° 0 mm 4 mps 758 mmHg 46%
    13:00 +34°C° 0 mm 4 mps 757 mmHg 44%
    14:00 +34°C° 0 mm 4 mps 757 mmHg 47%
    15:00 +33°C° 0 mm 4 mps 757 mmHg 50%
    16:00 +32°C° 0 mm 4 mps 757 mmHg 53%
    17:00 +29°C° 0 mm 4 mps 757 mmHg 60%
    18:00 +28°C° 0 mm 4 mps 757 mmHg 68%
    19:00 +26°C° 0 mm 3 mps 758 mmHg 75%
    20:00 +25°C° 0 mm 3 mps 758 mmHg 79%
    21:00 +25°C° 0 mm 3 mps 758 mmHg 83%
    22:00 +24°C° 0 mm 3 mps 759 mmHg 87%
    23:00 +24°C° 0 mm 3 mps 758 mmHg 88%

    Tomorrow, 19 January, Saturday

    Time Temperature Precipitation Wind Pressure Humidity
    00:00 +24°C° 0 mm 3 mps 758 mmHg 89%
    01:00 +22°C° 0 mm 3 mps 758 mmHg 90%
    02:00 +22°C° 0 mm 3 mps 758 mmHg 90%
    03:00 +23°C° 0 mm 2 mps 758 mmHg 90%
    04:00 +23°C° 0 mm 2 mps 758 mmHg 91%
    05:00 +24°C° 0 mm 2 mps 758 mmHg 87%
    06:00 +25°C° 0 mm 2 mps 759 mmHg 83%
    07:00 +25°C° 0 mm 2 mps 759 mmHg 79%
    08:00 +28°C° 0 mm 2 mps 759 mmHg 68%
    09:00 +30°C° 0 mm 2 mps 759 mmHg 56%
    10:00 +34°C° 0 mm 2 mps 759 mmHg 45%
    11:00 +35°C° 0 mm 3 mps 758 mmHg 42%
    12:00 +36°C° 0 mm 4 mps 758 mmHg 39%
    13:00 +36°C° 0 mm 4 mps 757 mmHg 37%
    14:00 +35°C° 0 mm 4 mps 757 mmHg 41%
    15:00 +34°C° 0 mm 4 mps 757 mmHg 45%
    16:00 +33°C° 0 mm 4 mps 756 mmHg 49%
    17:00 +30°C° 0 mm 4 mps 757 mmHg 58%
    18:00 +28°C° 0 mm 3 mps 757 mmHg 67%
    19:00 +26°C° 0 mm 3 mps 758 mmHg 77%
    20:00 +25°C° 0 mm 2 mps 758 mmHg 81%
    21:00 +24°C° 0 mm 2 mps 759 mmHg 86%
    22:00 +23°C° 0 mm 1 mps 760 mmHg 91%
    23:00 +23°C° 0 mm 1 mps 759 mmHg 91%

    Day after tomorrow, 20 January, Sunday

    Time Temperature Precipitation Wind Pressure Humidity
    00:00 +23°C° 0 mm 1 mps 759 mmHg 92%
    01:00 +22°C° 0 mm 1 mps 759 mmHg 93%
    02:00 +22°C° 0 mm 1 mps 759 mmHg 93%
    03:00 +22°C° 0 mm 1 mps 759 mmHg 94%
    04:00 +22°C° 0 mm 1 mps 759 mmHg 95%
    05:00 +24°C° 0 mm 1 mps 759 mmHg 89%
    06:00 +25°C° 0 mm 1 mps 760 mmHg 83%
    07:00 +27°C° 0 mm 1 mps 760 mmHg 78%
    08:00 +28°C° 0 mm 2 mps 760 mmHg 71%
    09:00 +30°C° 0 mm 2 mps 760 mmHg 65%
    10:00 +33°C° 0 mm 3 mps 760 mmHg 58%
    11:00 +33°C° 0 mm 3 mps 760 mmHg 57%
    12:00 +34°C° 0 mm 3 mps 759 mmHg 55%
    13:00 +34°C° 0 mm 4 mps 759 mmHg 54%
    14:00 +34°C° 0 mm 4 mps 759 mmHg 56%
    15:00 +33°C° 0 mm 4 mps 758 mmHg 59%
    16:00 +33°C° 0 mm 4 mps 758 mmHg 61%
    17:00 +30°C° 0 mm 3 mps 758 mmHg 68%
    18:00 +28°C° 0 mm 3 mps 759 mmHg 74%
    19:00 +27°C° 0 mm 3 mps 759 mmHg 81%
    20:00 +26°C° 0 mm 2 mps 759 mmHg 84%
    21:00 +25°C° 0 mm 2 mps 760 mmHg 87%
    22:00 +25°C° 0 mm 1 mps 761 mmHg 89%
    23:00 +24°C° 0 mm 1 mps 760 mmHg 90%

    21 January, Monday

    Time Temperature Precipitation Wind Pressure Humidity
    00:00 +24°C° 0 mm 1 mps 759 mmHg 90%
    01:00 +24°C° 0 mm 1 mps 759 mmHg 90%
    02:00 +24°C° 0 mm 1 mps 759 mmHg 90%
    03:00 +24°C° 0 mm 1 mps 759 mmHg 91%
    04:00 +23°C° 0 mm 1 mps 758 mmHg 91%
    05:00 +25°C° 0 mm 1 mps 759 mmHg 86%
    06:00 +26°C° 0 mm 1 mps 759 mmHg 80%
    07:00 +27°C° 0 mm 1 mps 760 mmHg 74%
    08:00 +29°C° 0 mm 2 mps 760 mmHg 65%
    09:00 +30°C° 0 mm 2 mps 760 mmHg 56%
    10:00 +33°C° 0 mm 3 mps 760 mmHg 47%
    11:00 +33°C° 0 mm 3 mps 759 mmHg 47%
    12:00 +34°C° 0 mm 4 mps 759 mmHg 46%
    13:00 +34°C° 0 mm 4 mps 758 mmHg 45%
    14:00 +33°C° 0 mm 4 mps 758 mmHg 47%
    15:00 +33°C° 0 mm 4 mps 758 mmHg 50%
    16:00 +32°C° 0 mm 4 mps 758 mmHg 53%
    17:00 +29°C° 0 mm 4 mps 758 mmHg 61%
    18:00 +28°C° 0 mm 3 mps 759 mmHg 68%
    19:00 +26°C° 0 mm 3 mps 759 mmHg 76%
    20:00 +25°C° 0 mm 2 mps 759 mmHg 80%
    21:00 +25°C° 0 mm 2 mps 760 mmHg 83%
    22:00 +24°C° 0 mm 2 mps 760 mmHg 87%
    23:00 +24°C° 0 mm 1 mps 760 mmHg 88%

    22 January, Tuesday

    Time Temperature Precipitation Wind Pressure Humidity
    00:00 +23°C° 0 mm 1 mps 759 mmHg 89%
    01:00 +23°C° 0 mm 1 mps 759 mmHg 91%
    02:00 +23°C° 0 mm 1 mps 759 mmHg 91%
    03:00 +23°C° 0 mm 1 mps 759 mmHg 92%
    04:00 +23°C° 0 mm 1 mps 759 mmHg 92%
    05:00 +24°C° 0 mm 1 mps 759 mmHg 86%
    06:00 +25°C° 0 mm 1 mps 759 mmHg 80%
    07:00 +27°C° 0 mm 1 mps 760 mmHg 74%
    08:00 +28°C° 0 mm 2 mps 759 mmHg 69%
    09:00 +29°C° 0 mm 2 mps 759 mmHg 65%
    10:00 +29°C° 0 mm 2 mps 759 mmHg 60%
    11:00 +31°C° 0 mm 3 mps 759 mmHg 56%
    12:00 +33°C° 0 mm 3 mps 758 mmHg 52%
    13:00 +34°C° 0 mm 3 mps 757 mmHg 48%
    14:00 +33°C° 0 mm 4 mps 757 mmHg 51%
    15:00 +32°C° 0 mm 4 mps 757 mmHg 53%
    16:00 +32°C° 0 mm 4 mps 756 mmHg 56%
    17:00 +29°C° 0 mm 4 mps 756 mmHg 63%
    18:00 +27°C° 0 mm 3 mps 757 mmHg 70%
    19:00 +26°C° 0 mm 3 mps 757 mmHg 76%
    20:00 +25°C° 0 mm 3 mps 757 mmHg 80%
    21:00 +25°C° 0 mm 3 mps 757 mmHg 84%
    22:00 +24°C° 0 mm 2 mps 758 mmHg 88%
    23:00 +24°C° 0 mm 2 mps 757 mmHg 88%

    23 January, Wednesday

    Time Temperature Precipitation Wind Pressure Humidity
    00:00 +24°C° 0 mm 2 mps 757 mmHg 89%
    01:00 +23°C° 0 mm 1 mps 757 mmHg 90%
    02:00 +23°C° 0 mm 1 mps 757 mmHg 91%
    03:00 +23°C° 0 mm 1 mps 756 mmHg 91%
    04:00 +23°C° 0 mm 1 mps 756 mmHg 92%
    05:00 +24°C° 0 mm 1 mps 756 mmHg 88%
    06:00 +25°C° 0 mm 2 mps 757 mmHg 85%
    07:00 +26°C° 0 mm 2 mps 757 mmHg 81%
    08:00 +27°C° 0 mm 2 mps 757 mmHg 73%
    09:00 +29°C° 0 mm 2 mps 757 mmHg 64%
    10:00 +31°C° 0 mm 3 mps 756 mmHg 55%
    11:00 +34°C° 0 mm 3 mps 756 mmHg 50%
    12:00 +35°C° 0 mm 4 mps 755 mmHg 44%
    13:00 +37°C° 0 mm 4 mps 754 mmHg 39%
    14:00 +36°C° 0 mm 4 mps 754 mmHg 43%
    15:00 +35°C° 0 mm 5 mps 754 mmHg 47%
    16:00 +34°C° 0 mm 6 mps 753 mmHg 51%
    17:00 +32°C° 0.6 mm 4 mps 753 mmHg 62%
    18:00 +29°C° 0.6 mm 3 mps 754 mmHg 73%
    19:00 +27°C° 0.6 mm 2 mps 754 mmHg 84%
    20:00 +26°C° 0.8 mm 2 mps 755 mmHg 87%
    21:00 +26°C° 0.8 mm 3 mps 755 mmHg 90%
    22:00 +25°C° 0.8 mm 3 mps 756 mmHg 92%
    23:00 +25°C° 0 mm 3 mps 756 mmHg 92%
    Show more